contact:dominique.lefevre@mio.osupytheas.fr, maurice.libes@osupytheas.fr, didier.mallarino@osupytheas.fr
Project:EMSO http://www.emso-fr.org/EMSO-France
Depth: 2436.0 m
Title:EMSO Ligure Ouest : Data MII capteur MICROCAT
DateTime_Computer,Latitude,Longitude,Temperature,Conductivity,Pressure,DateTime_Instrument
DateTime_Computer,Latitude,Longitude,degC,S m-1,dbar,DateTime_Instrument
2023-09-19T00:02:46Z,42.805,6.029,13.3107,4.60148,2470.754,2023-9-19T02:05:08Z
2023-09-19T00:05:49Z,42.805,6.029,13.3110,4.60138,2470.74,2023-9-19T02:08:11Z
2023-09-19T00:08:52Z,42.805,6.029,13.3111,4.60139,2470.74,2023-9-19T02:11:14Z
2023-09-19T00:11:55Z,42.805,6.029,13.3106,4.60158,2470.74,2023-9-19T02:14:17Z
2023-09-19T00:14:58Z,42.805,6.029,13.3101,4.60175,2470.777,2023-9-19T02:17:21Z
2023-09-19T00:18:01Z,42.805,6.029,13.3118,4.60173,2470.73,2023-9-19T02:20:24Z
2023-09-19T00:21:04Z,42.805,6.029,13.3116,4.60164,2470.73,2023-9-19T02:23:27Z
2023-09-19T00:24:07Z,42.805,6.029,13.3108,4.60163,2470.73,2023-9-19T02:26:30Z
2023-09-19T00:27:11Z,42.805,6.029,13.3121,4.60150,2470.754,2023-9-19T02:29:33Z
2023-09-19T00:30:14Z,42.805,6.029,13.3118,4.60139,2470.717,2023-9-19T02:32:36Z
2023-09-19T00:33:17Z,42.805,6.029,13.3109,4.60135,2470.74,2023-9-19T02:35:39Z
2023-09-19T00:36:20Z,42.805,6.029,13.3096,4.60142,2470.693,2023-9-19T02:38:42Z
2023-09-19T00:39:23Z,42.805,6.029,13.3088,4.60142,2470.73,2023-9-19T02:41:45Z
2023-09-19T00:42:26Z,42.805,6.029,13.3085,4.60163,2470.693,2023-9-19T02:44:48Z
2023-09-19T00:45:29Z,42.805,6.029,13.3084,4.60165,2470.717,2023-9-19T02:47:51Z
2023-09-19T00:48:32Z,42.805,6.029,13.3082,4.60123,2470.73,2023-9-19T02:50:54Z
2023-09-19T00:51:35Z,42.805,6.029,13.3056,4.60114,2470.73,2023-9-19T02:53:57Z
2023-09-19T00:54:38Z,42.805,6.029,13.3041,4.60122,2470.754,2023-9-19T02:57:01Z
2023-09-19T00:57:41Z,42.805,6.029,13.3036,4.60135,2470.717,2023-9-19T03:00:04Z
2023-09-19T01:00:44Z,42.805,6.029,13.3058,4.60164,2470.73,2023-9-19T03:03:07Z
2023-09-19T01:03:48Z,42.805,6.029,13.3055,4.60118,2470.73,2023-9-19T03:06:10Z
2023-09-19T01:06:51Z,42.805,6.029,13.3054,4.60110,2470.717,2023-9-19T03:09:13Z
2023-09-19T01:09:54Z,42.805,6.029,13.3056,4.60107,2470.717,2023-9-19T03:12:16Z
2023-09-19T01:12:57Z,42.805,6.029,13.3057,4.60111,2470.73,2023-9-19T03:15:19Z
2023-09-19T01:16:00Z,42.805,6.029,13.3054,4.60110,2470.717,2023-9-19T03:18:22Z
2023-09-19T01:19:03Z,42.805,6.029,13.3060,4.60102,2470.693,2023-9-19T03:21:25Z
2023-09-19T01:22:06Z,42.805,6.029,13.3058,4.60103,2470.717,2023-9-19T03:24:28Z
2023-09-19T01:25:09Z,42.805,6.029,13.3074,4.60103,2470.693,2023-9-19T03:27:31Z
2023-09-19T01:28:12Z,42.805,6.029,13.3080,4.60104,2470.693,2023-9-19T03:30:34Z
2023-09-19T01:31:15Z,42.805,6.029,13.3036,4.60102,2470.693,2023-9-19T03:33:38Z
2023-09-19T01:34:18Z,42.805,6.029,13.3036,4.60177,2470.707,2023-9-19T03:36:41Z
2023-09-19T01:37:21Z,42.805,6.029,13.3125,4.60168,2470.707,2023-9-19T03:39:44Z
2023-09-19T01:40:24Z,42.805,6.029,13.3133,4.60110,2470.707,2023-9-19T03:42:47Z
2023-09-19T01:43:28Z,42.805,6.029,13.3076,4.60107,2470.707,2023-9-19T03:45:50Z
2023-09-19T01:46:31Z,42.805,6.029,13.3081,4.60106,2470.693,2023-9-19T03:48:53Z
2023-09-19T01:49:34Z,42.805,6.029,13.3078,4.60105,2470.693,2023-9-19T03:51:56Z
2023-09-19T01:52:37Z,42.805,6.029,13.3047,4.60132,2470.684,2023-9-19T03:54:59Z
2023-09-19T01:55:40Z,42.805,6.029,13.3033,4.60125,2470.717,2023-9-19T03:58:02Z
2023-09-19T01:58:43Z,42.805,6.029,13.3041,4.60102,2470.707,2023-9-19T04:01:05Z
2023-09-19T02:01:46Z,42.805,6.029,13.3044,4.60125,2470.693,2023-9-19T04:04:08Z
2023-09-19T02:04:49Z,42.805,6.029,13.3048,4.60117,2470.67,2023-9-19T04:07:11Z
2023-09-19T02:07:52Z,42.805,6.029,13.3044,4.60114,2470.693,2023-9-19T04:10:14Z
2023-09-19T02:10:55Z,42.805,6.029,13.3036,4.60108,2470.693,2023-9-19T04:13:18Z
2023-09-19T02:13:58Z,42.805,6.029,13.3034,4.60122,2470.67,2023-9-19T04:16:21Z
2023-09-19T02:17:01Z,42.805,6.029,13.3039,4.60148,2470.684,2023-9-19T04:19:24Z
2023-09-19T02:20:05Z,42.805,6.029,13.3052,4.60119,2470.707,2023-9-19T04:22:27Z
2023-09-19T02:23:08Z,42.805,6.029,13.3056,4.60119,2470.693,2023-9-19T04:25:30Z
2023-09-19T02:26:11Z,42.805,6.029,13.3058,4.60144,2470.693,2023-9-19T04:28:33Z
2023-09-19T02:29:14Z,42.805,6.029,13.3072,4.60113,2470.684,2023-9-19T04:31:36Z
2023-09-19T02:32:17Z,42.805,6.029,13.3111,4.60123,2470.684,2023-9-19T04:34:39Z
2023-09-19T02:35:20Z,42.805,6.029,13.3100,4.60132,2470.684,2023-9-19T04:37:42Z
2023-09-19T02:38:23Z,42.805,6.029,13.3076,4.60115,2470.67,2023-9-19T04:40:45Z
2023-09-19T02:41:26Z,42.805,6.029,13.3076,4.60112,2470.684,2023-9-19T04:43:48Z
2023-09-19T02:44:29Z,42.805,6.029,13.3081,4.60145,2470.661,2023-9-19T04:46:51Z
2023-09-19T02:47:32Z,42.805,6.029,13.3066,4.60104,2470.646,2023-9-19T04:49:54Z
2023-09-19T02:50:35Z,42.805,6.029,13.3070,4.60113,2470.684,2023-9-19T04:52:58Z
2023-09-19T02:53:38Z,42.805,6.029,13.3069,4.60120,2470.67,2023-9-19T04:56:01Z
2023-09-19T02:56:41Z,42.805,6.029,13.3066,4.60114,2470.661,2023-9-19T04:59:04Z
2023-09-19T02:59:45Z,42.805,6.029,13.3072,4.60139,2470.637,2023-9-19T05:02:07Z
2023-09-19T03:02:48Z,42.805,6.029,13.3072,4.60168,2470.661,2023-9-19T05:05:10Z
2023-09-19T03:05:51Z,42.805,6.029,13.3065,4.60138,2470.646,2023-9-19T05:08:13Z
2023-09-19T03:08:54Z,42.805,6.029,13.3072,4.60139,2470.67,2023-9-19T05:11:16Z
2023-09-19T03:11:57Z,42.805,6.029,13.3078,4.60150,2470.661,2023-9-19T05:14:19Z
2023-09-19T03:15:00Z,42.805,6.029,13.3072,4.60155,2470.637,2023-9-19T05:17:22Z
2023-09-19T03:18:03Z,42.805,6.029,13.3086,4.60147,2470.684,2023-9-19T05:20:25Z
2023-09-19T03:21:06Z,42.805,6.029,13.3051,4.60173,2470.646,2023-9-19T05:23:28Z
2023-09-19T03:24:09Z,42.805,6.029,13.3060,4.60188,2470.624,2023-9-19T05:26:31Z
2023-09-19T03:27:12Z,42.805,6.029,13.3056,4.60175,2470.646,2023-9-19T05:29:35Z
2023-09-19T03:30:15Z,42.805,6.029,13.3078,4.60157,2470.624,2023-9-19T05:32:38Z
2023-09-19T03:33:18Z,42.805,6.029,13.3072,4.60184,2470.661,2023-9-19T05:35:41Z
2023-09-19T03:36:22Z,42.805,6.029,13.3067,4.60146,2470.6,2023-9-19T05:38:44Z
2023-09-19T03:39:25Z,42.805,6.029,13.3054,4.60192,2470.661,2023-9-19T05:41:47Z
2023-09-19T03:42:28Z,42.805,6.029,13.3062,4.60189,2470.661,2023-9-19T05:44:50Z
2023-09-19T03:45:31Z,42.805,6.029,13.3067,4.60167,2470.624,2023-9-19T05:47:53Z
2023-09-19T03:48:34Z,42.805,6.029,13.3056,4.60201,2470.661,2023-9-19T05:50:56Z
2023-09-19T03:51:37Z,42.805,6.029,13.3075,4.60183,2470.661,2023-9-19T05:53:59Z
2023-09-19T03:54:40Z,42.805,6.029,13.3077,4.60160,2470.646,2023-9-19T05:57:02Z
2023-09-19T03:57:43Z,42.805,6.029,13.3088,4.60178,2470.637,2023-9-19T06:00:05Z
2023-09-19T04:00:46Z,42.805,6.029,13.3059,4.60200,2470.624,2023-9-19T06:03:08Z
2023-09-19T04:03:49Z,42.805,6.029,13.3054,4.60191,2470.637,2023-9-19T06:06:12Z
2023-09-19T04:06:52Z,42.805,6.029,13.3063,4.60183,2470.661,2023-9-19T06:09:15Z
2023-09-19T04:09:55Z,42.805,6.029,13.3067,4.60208,2470.646,2023-9-19T06:12:18Z
2023-09-19T04:12:58Z,42.805,6.029,13.3052,4.60187,2470.637,2023-9-19T06:15:21Z
2023-09-19T04:16:02Z,42.805,6.029,13.3065,4.60185,2470.684,2023-9-19T06:18:24Z
2023-09-19T04:19:05Z,42.805,6.029,13.3056,4.60198,2470.661,2023-9-19T06:21:27Z
2023-09-19T04:22:08Z,42.805,6.029,13.3049,4.60214,2470.661,2023-9-19T06:24:30Z
2023-09-19T04:25:11Z,42.805,6.029,13.3054,4.60181,2470.646,2023-9-19T06:27:33Z
2023-09-19T04:28:14Z,42.805,6.029,13.3083,4.60167,2470.661,2023-9-19T06:30:36Z
2023-09-19T04:31:15Z,42.805,6.029,13.3052,4.60181,2470.637,2023-9-19T06:33:37Z
2023-09-19T04:34:18Z,42.805,6.029,13.3047,4.60178,2470.684,2023-9-19T06:36:40Z
2023-09-19T04:37:21Z,42.805,6.029,13.3058,4.60172,2470.646,2023-9-19T06:39:44Z
2023-09-19T04:40:24Z,42.805,6.029,13.3054,4.60200,2470.624,2023-9-19T06:42:47Z
2023-09-19T04:43:27Z,42.805,6.029,13.3058,4.60147,2470.624,2023-9-19T06:45:50Z
2023-09-19T04:46:30Z,42.805,6.029,13.3062,4.60180,2470.646,2023-9-19T06:48:53Z
2023-09-19T04:49:34Z,42.805,6.029,13.3063,4.60133,2470.661,2023-9-19T06:51:56Z
2023-09-19T04:52:37Z,42.805,6.029,13.3050,4.60183,2470.646,2023-9-19T06:54:59Z
2023-09-19T04:55:40Z,42.805,6.029,13.3070,4.60200,2470.67,2023-9-19T06:58:02Z
2023-09-19T04:58:43Z,42.805,6.029,13.3061,4.60181,2470.67,2023-9-19T07:01:05Z
2023-09-19T05:01:46Z,42.805,6.029,13.3058,4.60160,2470.661,2023-9-19T07:04:08Z
2023-09-19T05:04:49Z,42.805,6.029,13.3063,4.60157,2470.67,2023-9-19T07:07:11Z
2023-09-19T05:07:52Z,42.805,6.029,13.3047,4.60179,2470.67,2023-9-19T07:10:14Z
2023-09-19T05:10:55Z,42.805,6.029,13.3053,4.60183,2470.646,2023-9-19T07:13:17Z
2023-09-19T05:13:58Z,42.805,6.029,13.3090,4.60200,2470.693,2023-9-19T07:16:20Z
2023-09-19T05:17:01Z,42.805,6.029,13.3080,4.60170,2470.67,2023-9-19T07:19:24Z
2023-09-19T05:20:04Z,42.805,6.029,13.3061,4.60175,2470.684,2023-9-19T07:22:27Z
2023-09-19T05:23:07Z,42.805,6.029,13.3075,4.60174,2470.67,2023-9-19T07:25:30Z
2023-09-19T05:26:10Z,42.805,6.029,13.3067,4.60180,2470.67,2023-9-19T07:28:33Z
2023-09-19T05:29:14Z,42.805,6.029,13.3057,4.60190,2470.684,2023-9-19T07:31:36Z
2023-09-19T05:32:17Z,42.805,6.029,13.3054,4.60144,2470.707,2023-9-19T07:34:39Z
2023-09-19T05:35:20Z,42.805,6.029,13.3051,4.60190,2470.707,2023-9-19T07:37:42Z
2023-09-19T05:38:23Z,42.805,6.029,13.3056,4.60179,2470.717,2023-9-19T07:40:45Z
2023-09-19T05:41:26Z,42.805,6.029,13.3055,4.60175,2470.693,2023-9-19T07:43:48Z
2023-09-19T05:44:29Z,42.805,6.029,13.3064,4.60181,2470.67,2023-9-19T07:46:51Z
2023-09-19T05:47:32Z,42.805,6.029,13.3068,4.60180,2470.717,2023-9-19T07:49:54Z
2023-09-19T05:50:35Z,42.805,6.029,13.3069,4.60181,2470.707,2023-9-19T07:52:57Z
2023-09-19T05:53:38Z,42.805,6.029,13.3054,4.60166,2470.693,2023-9-19T07:56:01Z
2023-09-19T05:56:41Z,42.805,6.029,13.3048,4.60146,2470.693,2023-9-19T07:59:04Z
2023-09-19T05:59:44Z,42.805,6.029,13.3040,4.60150,2470.707,2023-9-19T08:02:07Z
2023-09-19T06:02:47Z,42.805,6.029,13.3053,4.60151,2470.717,2023-9-19T08:05:10Z
2023-09-19T06:05:51Z,42.805,6.029,13.3044,4.60166,2470.73,2023-9-19T08:08:13Z
2023-09-19T06:08:54Z,42.805,6.029,13.3051,4.60163,2470.693,2023-9-19T08:11:16Z
2023-09-19T06:11:57Z,42.805,6.029,13.3059,4.60178,2470.717,2023-9-19T08:14:19Z
2023-09-19T06:15:00Z,42.805,6.029,13.3054,4.60165,2470.717,2023-9-19T08:17:22Z
2023-09-19T06:18:03Z,42.805,6.029,13.3051,4.60168,2470.74,2023-9-19T08:20:25Z
2023-09-19T06:21:06Z,42.805,6.029,13.3064,4.60148,2470.693,2023-9-19T08:23:28Z
2023-09-19T06:24:09Z,42.805,6.029,13.3048,4.60175,2470.754,2023-9-19T08:26:31Z
2023-09-19T06:27:12Z,42.805,6.029,13.3047,4.60152,2470.74,2023-9-19T08:29:34Z
2023-09-19T06:30:14Z,42.805,6.029,13.3047,4.60193,2470.693,2023-9-19T08:32:36Z
2023-09-19T06:33:17Z,42.805,6.029,13.3044,4.60155,2470.717,2023-9-19T08:35:40Z
2023-09-19T06:36:20Z,42.805,6.029,13.3056,4.60180,2470.693,2023-9-19T08:38:43Z
2023-09-19T06:39:23Z,42.805,6.029,13.3051,4.60155,2470.754,2023-9-19T08:41:46Z
2023-09-19T06:42:27Z,42.805,6.029,13.3051,4.60152,2470.74,2023-9-19T08:44:49Z
2023-09-19T06:45:30Z,42.805,6.029,13.3048,4.60156,2470.74,2023-9-19T08:47:52Z
2023-09-19T06:48:33Z,42.805,6.029,13.3046,4.60181,2470.787,2023-9-19T08:50:55Z
2023-09-19T06:51:36Z,42.805,6.029,13.3043,4.60170,2470.763,2023-9-19T08:53:58Z
2023-09-19T06:54:39Z,42.805,6.029,13.3043,4.60165,2470.754,2023-9-19T08:57:01Z
2023-09-19T06:57:42Z,42.805,6.029,13.3042,4.60145,2470.763,2023-9-19T09:00:04Z
2023-09-19T07:00:45Z,42.805,6.029,13.3044,4.60185,2470.74,2023-9-19T09:03:07Z
2023-09-19T07:03:48Z,42.805,6.029,13.3052,4.60180,2470.74,2023-9-19T09:06:10Z
2023-09-19T07:06:51Z,42.805,6.029,13.3037,4.60160,2470.763,2023-9-19T09:09:13Z
2023-09-19T07:09:54Z,42.805,6.029,13.3045,4.60178,2470.763,2023-9-19T09:12:17Z
2023-09-19T07:12:57Z,42.805,6.029,13.3052,4.60184,2470.763,2023-9-19T09:15:20Z
2023-09-19T07:16:00Z,42.805,6.029,13.3061,4.60176,2470.787,2023-9-19T09:18:23Z
2023-09-19T07:19:03Z,42.805,6.029,13.3041,4.60125,2470.787,2023-9-19T09:21:26Z
2023-09-19T07:22:07Z,42.805,6.029,13.3043,4.60142,2470.763,2023-9-19T09:24:29Z
2023-09-19T07:25:10Z,42.805,6.029,13.3046,4.60144,2470.763,2023-9-19T09:27:32Z
2023-09-19T07:28:13Z,42.805,6.029,13.3048,4.60152,2470.763,2023-9-19T09:30:35Z
2023-09-19T07:31:16Z,42.805,6.029,13.3041,4.60131,2470.81,2023-9-19T09:33:38Z
2023-09-19T07:34:19Z,42.805,6.029,13.3034,4.60132,2470.81,2023-9-19T09:36:41Z
2023-09-19T07:37:22Z,42.805,6.029,13.3054,4.60166,2470.763,2023-9-19T09:39:44Z
2023-09-19T07:40:25Z,42.805,6.029,13.3041,4.60173,2470.763,2023-9-19T09:42:47Z
2023-09-19T07:43:28Z,42.805,6.029,13.3052,4.60161,2470.777,2023-9-19T09:45:50Z
2023-09-19T07:46:31Z,42.805,6.029,13.3054,4.60135,2470.824,2023-9-19T09:48:53Z
2023-09-19T07:49:34Z,42.805,6.029,13.3052,4.60174,2470.8,2023-9-19T09:51:57Z
2023-09-19T07:52:37Z,42.805,6.029,13.3056,4.60134,2470.8,2023-9-19T09:55:00Z
2023-09-19T07:55:40Z,42.805,6.029,13.3037,4.60147,2470.833,2023-9-19T09:58:03Z
2023-09-19T07:58:44Z,42.805,6.029,13.3046,4.60137,2470.824,2023-9-19T10:01:06Z
2023-09-19T08:01:47Z,42.805,6.029,13.3041,4.60145,2470.787,2023-9-19T10:04:09Z
2023-09-19T08:04:50Z,42.805,6.029,13.3037,4.60119,2470.8,2023-9-19T10:07:12Z
2023-09-19T08:07:53Z,42.805,6.029,13.3040,4.60133,2470.787,2023-9-19T10:10:15Z
2023-09-19T08:10:56Z,42.805,6.029,13.3038,4.60127,2470.787,2023-9-19T10:13:18Z
2023-09-19T08:13:59Z,42.805,6.029,13.3058,4.60167,2470.833,2023-9-19T10:16:21Z
2023-09-19T08:17:02Z,42.805,6.029,13.3040,4.60144,2470.824,2023-9-19T10:19:24Z
2023-09-19T08:20:05Z,42.805,6.029,13.3038,4.60130,2470.8,2023-9-19T10:22:27Z
2023-09-19T08:23:08Z,42.805,6.029,13.3056,4.60138,2470.81,2023-9-19T10:25:30Z
2023-09-19T08:26:11Z,42.805,6.029,13.3046,4.60143,2470.824,2023-9-19T10:28:34Z
2023-09-19T08:29:14Z,42.805,6.029,13.3043,4.60163,2470.857,2023-9-19T10:31:37Z
2023-09-19T08:32:18Z,42.805,6.029,13.3039,4.60148,2470.833,2023-9-19T10:34:40Z
2023-09-19T08:35:21Z,42.805,6.029,13.3045,4.60133,2470.833,2023-9-19T10:37:43Z
2023-09-19T08:38:24Z,42.805,6.029,13.3049,4.60152,2470.833,2023-9-19T10:40:46Z
2023-09-19T08:41:27Z,42.805,6.029,13.3047,4.60152,2470.833,2023-9-19T10:43:49Z
2023-09-19T08:44:30Z,42.805,6.029,13.3034,4.60125,2470.81,2023-9-19T10:46:52Z
2023-09-19T08:47:33Z,42.805,6.029,13.3043,4.60133,2470.81,2023-9-19T10:49:55Z
2023-09-19T08:50:36Z,42.805,6.029,13.3037,4.60122,2470.8,2023-9-19T10:52:58Z
2023-09-19T08:53:39Z,42.805,6.029,13.3048,4.60130,2470.847,2023-9-19T10:56:02Z
2023-09-19T08:56:42Z,42.805,6.029,13.3052,4.60140,2470.833,2023-9-19T10:59:05Z
2023-09-19T08:59:45Z,42.805,6.029,13.3047,4.60151,2470.824,2023-9-19T11:02:08Z
2023-09-19T09:02:48Z,42.805,6.029,13.3056,4.60146,2470.857,2023-9-19T11:05:11Z
2023-09-19T09:05:52Z,42.805,6.029,13.3035,4.60128,2470.833,2023-9-19T11:08:14Z
2023-09-19T09:08:55Z,42.805,6.029,13.3049,4.60139,2470.81,2023-9-19T11:11:17Z
2023-09-19T09:11:58Z,42.805,6.029,13.3036,4.60151,2470.824,2023-9-19T11:14:20Z
2023-09-19T09:15:01Z,42.805,6.029,13.3040,4.60123,2470.871,2023-9-19T11:17:23Z
2023-09-19T09:18:04Z,42.805,6.029,13.3061,4.60160,2470.847,2023-9-19T11:20:26Z
2023-09-19T09:21:07Z,42.805,6.029,13.3041,4.60143,2470.847,2023-9-19T11:23:29Z
2023-09-19T09:24:10Z,42.805,6.029,13.3052,4.60148,2470.847,2023-9-19T11:26:32Z
2023-09-19T09:27:13Z,42.805,6.029,13.3065,4.60142,2470.847,2023-9-19T11:29:35Z
2023-09-19T09:30:16Z,42.805,6.029,13.3038,4.60148,2470.833,2023-9-19T11:32:39Z
2023-09-19T09:33:19Z,42.805,6.029,13.3057,4.60155,2470.787,2023-9-19T11:35:42Z
2023-09-19T09:36:22Z,42.805,6.029,13.3053,4.60165,2470.847,2023-9-19T11:38:45Z
2023-09-19T09:39:26Z,42.805,6.029,13.3041,4.60155,2470.833,2023-9-19T11:41:48Z
2023-09-19T09:42:29Z,42.805,6.029,13.3040,4.60151,2470.833,2023-9-19T11:44:51Z
2023-09-19T09:45:32Z,42.805,6.029,13.3059,4.60148,2470.847,2023-9-19T11:47:54Z
2023-09-19T09:48:35Z,42.805,6.029,13.3044,4.60155,2470.81,2023-9-19T11:50:57Z
2023-09-19T09:51:38Z,42.805,6.029,13.3041,4.60125,2470.824,2023-9-19T11:54:00Z
2023-09-19T09:54:41Z,42.805,6.029,13.3039,4.60117,2470.847,2023-9-19T11:57:03Z
2023-09-19T09:57:44Z,42.805,6.029,13.3055,4.60134,2470.824,2023-9-19T12:00:06Z
2023-09-19T10:00:47Z,42.805,6.029,13.3051,4.60162,2470.857,2023-9-19T12:03:09Z
2023-09-19T10:03:50Z,42.805,6.029,13.3042,4.60157,2470.787,2023-9-19T12:06:12Z
2023-09-19T10:06:53Z,42.805,6.029,13.3072,4.60165,2470.871,2023-9-19T12:09:16Z
2023-09-19T10:09:56Z,42.805,6.029,13.3068,4.60175,2470.824,2023-9-19T12:12:19Z
2023-09-19T10:12:59Z,42.805,6.029,13.3064,4.60163,2470.81,2023-9-19T12:15:22Z
2023-09-19T10:16:03Z,42.805,6.029,13.3062,4.60169,2470.81,2023-9-19T12:18:25Z
2023-09-19T10:19:06Z,42.805,6.029,13.3049,4.60173,2470.857,2023-9-19T12:21:28Z
2023-09-19T10:22:09Z,42.805,6.029,13.3063,4.60180,2470.847,2023-9-19T12:24:31Z
2023-09-19T10:25:12Z,42.805,6.029,13.3041,4.60154,2470.824,2023-9-19T12:27:34Z
2023-09-19T10:28:15Z,42.805,6.029,13.3045,4.60146,2470.833,2023-9-19T12:30:37Z
2023-09-19T10:31:18Z,42.805,6.029,13.3056,4.60163,2470.787,2023-9-19T12:33:40Z
2023-09-19T10:34:21Z,42.805,6.029,13.3038,4.60155,2470.787,2023-9-19T12:36:43Z
2023-09-19T10:37:24Z,42.805,6.029,13.3043,4.60138,2470.787,2023-9-19T12:39:46Z
2023-09-19T10:40:27Z,42.805,6.029,13.3052,4.60156,2470.81,2023-9-19T12:42:50Z
2023-09-19T10:43:30Z,42.805,6.029,13.3044,4.60169,2470.824,2023-9-19T12:45:53Z
2023-09-19T10:46:33Z,42.805,6.029,13.3053,4.60157,2470.81,2023-9-19T12:48:56Z
2023-09-19T10:49:36Z,42.805,6.029,13.3041,4.60167,2470.824,2023-9-19T12:51:59Z
2023-09-19T10:52:40Z,42.805,6.029,13.3069,4.60150,2470.787,2023-9-19T12:55:02Z
2023-09-19T10:55:43Z,42.805,6.029,13.3047,4.60160,2470.81,2023-9-19T12:58:05Z
2023-09-19T10:58:46Z,42.805,6.029,13.3061,4.60170,2470.824,2023-9-19T13:01:08Z
2023-09-19T11:01:49Z,42.805,6.029,13.3069,4.60175,2470.81,2023-9-19T13:04:11Z
2023-09-19T11:04:52Z,42.805,6.029,13.3059,4.60151,2470.787,2023-9-19T13:07:14Z
2023-09-19T11:07:55Z,42.805,6.029,13.3054,4.60130,2470.824,2023-9-19T13:10:17Z
2023-09-19T11:10:58Z,42.805,6.029,13.3061,4.60156,2470.824,2023-9-19T13:13:20Z
2023-09-19T11:14:01Z,42.805,6.029,13.3051,4.60159,2470.824,2023-9-19T13:16:23Z
2023-09-19T11:17:04Z,42.805,6.029,13.3063,4.60164,2470.787,2023-9-19T13:19:27Z
2023-09-19T11:20:07Z,42.805,6.029,13.3067,4.60178,2470.787,2023-9-19T13:22:30Z
2023-09-19T11:23:10Z,42.805,6.029,13.3061,4.60181,2470.824,2023-9-19T13:25:33Z
2023-09-19T11:26:14Z,42.805,6.029,13.3060,4.60188,2470.8,2023-9-19T13:28:36Z
2023-09-19T11:29:17Z,42.805,6.029,13.3060,4.60176,2470.81,2023-9-19T13:31:39Z
2023-09-19T11:32:20Z,42.805,6.029,13.3065,4.60140,2470.824,2023-9-19T13:34:42Z
2023-09-19T11:35:23Z,42.805,6.029,13.3064,4.60139,2470.8,2023-9-19T13:37:45Z
2023-09-19T11:38:26Z,42.805,6.029,13.3058,4.60172,2470.787,2023-9-19T13:40:48Z
2023-09-19T11:41:29Z,42.805,6.029,13.3078,4.60151,2470.787,2023-9-19T13:43:51Z
2023-09-19T11:44:32Z,42.805,6.029,13.3069,4.60142,2470.763,2023-9-19T13:46:54Z
2023-09-19T11:47:35Z,42.805,6.029,13.3067,4.60166,2470.787,2023-9-19T13:49:57Z
2023-09-19T11:50:38Z,42.805,6.029,13.3060,4.60132,2470.8,2023-9-19T13:53:01Z
2023-09-19T11:53:41Z,42.805,6.029,13.3062,4.60148,2470.8,2023-9-19T13:56:04Z
2023-09-19T11:56:44Z,42.805,6.029,13.3069,4.60137,2470.777,2023-9-19T13:59:07Z
2023-09-19T11:59:47Z,42.805,6.029,13.3054,4.60132,2470.763,2023-9-19T14:02:10Z
2023-09-19T12:02:51Z,42.805,6.029,13.3060,4.60105,2470.8,2023-9-19T14:05:13Z
2023-09-19T12:05:54Z,42.805,6.029,13.3057,4.60137,2470.74,2023-9-19T14:08:16Z
2023-09-19T12:08:57Z,42.805,6.029,13.3067,4.60121,2470.787,2023-9-19T14:11:19Z
2023-09-19T12:12:00Z,42.805,6.029,13.3065,4.60137,2470.787,2023-9-19T14:14:22Z
2023-09-19T12:15:03Z,42.805,6.029,13.3076,4.60155,2470.763,2023-9-19T14:17:25Z
2023-09-19T12:18:06Z,42.805,6.029,13.3069,4.60127,2470.763,2023-9-19T14:20:28Z
2023-09-19T12:21:09Z,42.805,6.029,13.3071,4.60105,2470.763,2023-9-19T14:23:31Z
2023-09-19T12:24:12Z,42.805,6.029,13.3044,4.60113,2470.763,2023-9-19T14:26:34Z
2023-09-19T12:27:15Z,42.805,6.029,13.3055,4.60124,2470.763,2023-9-19T14:29:38Z
2023-09-19T12:30:18Z,42.805,6.029,13.3053,4.60125,2470.777,2023-9-19T14:32:41Z
2023-09-19T12:33:21Z,42.805,6.029,13.3048,4.60131,2470.787,2023-9-19T14:35:44Z
2023-09-19T12:36:24Z,42.805,6.029,13.3056,4.60128,2470.74,2023-9-19T14:38:47Z
2023-09-19T12:39:28Z,42.805,6.029,13.3050,4.60125,2470.777,2023-9-19T14:41:50Z
2023-09-19T12:42:31Z,42.805,6.029,13.3054,4.60115,2470.763,2023-9-19T14:44:53Z
2023-09-19T12:45:34Z,42.805,6.029,13.3059,4.60111,2470.73,2023-9-19T14:47:56Z
2023-09-19T12:48:37Z,42.805,6.029,13.3042,4.60124,2470.777,2023-9-19T14:50:59Z
2023-09-19T12:51:40Z,42.805,6.029,13.3053,4.60112,2470.73,2023-9-19T14:54:02Z
2023-09-19T12:54:43Z,42.805,6.029,13.3063,4.60114,2470.763,2023-9-19T14:57:05Z
2023-09-19T12:57:46Z,42.805,6.029,13.3050,4.60121,2470.777,2023-9-19T15:00:08Z
2023-09-19T13:00:49Z,42.805,6.029,13.3054,4.60138,2470.763,2023-9-19T15:03:11Z
2023-09-19T13:03:52Z,42.805,6.029,13.3067,4.60120,2470.754,2023-9-19T15:06:15Z
2023-09-19T13:06:55Z,42.805,6.029,13.3046,4.60104,2470.763,2023-9-19T15:09:18Z
2023-09-19T13:09:58Z,42.805,6.029,13.3050,4.60112,2470.763,2023-9-19T15:12:21Z
2023-09-19T13:13:01Z,42.805,6.029,13.3058,4.60130,2470.763,2023-9-19T15:15:24Z
2023-09-19T13:16:05Z,42.805,6.029,13.3058,4.60139,2470.74,2023-9-19T15:18:27Z
2023-09-19T13:19:08Z,42.805,6.029,13.3059,4.60144,2470.74,2023-9-19T15:21:30Z
2023-09-19T13:22:11Z,42.805,6.029,13.3051,4.60135,2470.717,2023-9-19T15:24:33Z
2023-09-19T13:25:14Z,42.805,6.029,13.3041,4.60132,2470.73,2023-9-19T15:27:36Z
2023-09-19T13:28:17Z,42.805,6.029,13.3061,4.60126,2470.717,2023-9-19T15:30:39Z
2023-09-19T13:31:20Z,42.805,6.029,13.3071,4.60129,2470.707,2023-9-19T15:33:42Z
2023-09-19T13:34:23Z,42.805,6.029,13.3061,4.60107,2470.717,2023-9-19T15:36:45Z
2023-09-19T13:37:26Z,42.805,6.029,13.3055,4.60110,2470.74,2023-9-19T15:39:48Z
2023-09-19T13:40:29Z,42.805,6.029,13.3048,4.60126,2470.74,2023-9-19T15:42:52Z
2023-09-19T13:43:32Z,42.805,6.029,13.3054,4.60136,2470.754,2023-9-19T15:45:55Z
2023-09-19T13:46:35Z,42.805,6.029,13.3092,4.60125,2470.73,2023-9-19T15:48:58Z
2023-09-19T13:49:39Z,42.805,6.029,13.3081,4.60114,2470.73,2023-9-19T15:52:01Z
2023-09-19T13:52:42Z,42.805,6.029,13.3080,4.60108,2470.717,2023-9-19T15:55:04Z
2023-09-19T13:55:45Z,42.805,6.029,13.3056,4.60127,2470.73,2023-9-19T15:58:07Z
2023-09-19T13:58:48Z,42.805,6.029,13.3072,4.60167,2470.707,2023-9-19T16:01:10Z
2023-09-19T14:01:51Z,42.805,6.029,13.3077,4.60132,2470.717,2023-9-19T16:04:13Z
2023-09-19T14:04:54Z,42.805,6.029,13.3061,4.60170,2470.707,2023-9-19T16:07:16Z
2023-09-19T14:07:57Z,42.805,6.029,13.3095,4.60157,2470.684,2023-9-19T16:10:19Z
2023-09-19T14:11:00Z,42.805,6.029,13.3096,4.60131,2470.684,2023-9-19T16:13:22Z
2023-09-19T14:14:03Z,42.805,6.029,13.3108,4.60149,2470.717,2023-9-19T16:16:25Z
2023-09-19T14:17:06Z,42.805,6.029,13.3080,4.60145,2470.693,2023-9-19T16:19:29Z
2023-09-19T14:20:09Z,42.805,6.029,13.3065,4.60131,2470.707,2023-9-19T16:22:32Z
2023-09-19T14:23:12Z,42.805,6.029,13.3065,4.60155,2470.693,2023-9-19T16:25:35Z
2023-09-19T14:26:16Z,42.805,6.029,13.3058,4.60154,2470.73,2023-9-19T16:28:38Z
2023-09-19T14:29:19Z,42.805,6.029,13.3067,4.60141,2470.707,2023-9-19T16:31:41Z
2023-09-19T14:32:24Z,42.805,6.029,13.3064,4.60144,2470.693,2023-9-19T16:34:46Z
2023-09-19T14:35:27Z,42.805,6.029,13.3055,4.60163,2470.707,2023-9-19T16:37:49Z
2023-09-19T14:38:30Z,42.805,6.029,13.3066,4.60155,2470.707,2023-9-19T16:40:52Z
2023-09-19T14:41:33Z,42.805,6.029,13.3051,4.60147,2470.684,2023-9-19T16:43:55Z
2023-09-19T14:44:36Z,42.805,6.029,13.3082,4.60143,2470.707,2023-9-19T16:46:58Z
2023-09-19T14:47:39Z,42.805,6.029,13.3091,4.60121,2470.693,2023-9-19T16:50:01Z
2023-09-19T14:50:42Z,42.805,6.029,13.3067,4.60135,2470.717,2023-9-19T16:53:05Z
2023-09-19T14:53:45Z,42.805,6.029,13.3058,4.60129,2470.693,2023-9-19T16:56:08Z
2023-09-19T14:56:48Z,42.805,6.029,13.3045,4.60131,2470.67,2023-9-19T16:59:11Z
2023-09-19T14:59:51Z,42.805,6.029,13.3079,4.60165,2470.67,2023-9-19T17:02:14Z
2023-09-19T15:02:55Z,42.805,6.029,13.3091,4.60151,2470.707,2023-9-19T17:05:17Z
2023-09-19T15:05:58Z,42.805,6.029,13.3081,4.60148,2470.684,2023-9-19T17:08:20Z
2023-09-19T15:09:01Z,42.805,6.029,13.3055,4.60130,2470.684,2023-9-19T17:11:23Z
2023-09-19T15:12:04Z,42.805,6.029,13.3048,4.60213,2470.684,2023-9-19T17:14:26Z